Showing default

YAOGAN-35 04C, 53526

Orbit data source: Space-Track

YAOGAN-35 04C, 53526 is a payload satellite owned by PLA GAD (CN) in LEO that was launched on Fri, 19 Aug 2022 UTC via a CHANG ZHENG 2D launch vehicle from the Xichang Space Center, China (XSC). Payload-class satellites include a variety of spacecraft equipped with specific instruments for various scientific and technological missions. These include communications satellites like Starlink; space stations such as the ISS; scientific satellites like the Hubble; Earth observation satellites from companies like Planet Labs, Umbra, and HawkEye 360; GPS; miniature CubeSats for education and research; and military/defense satellites.

Loading next visibility...
Identifier
53526, 2022-100E
Orbit
LEO
Country
Flag of CNCN / PRC
Related business
Manufacturer
DFH
Mission
Operational Defense Sigint
Bus & Motor
Unknown
Mass
~300 kg wet, ~300 kg dry
Launch date (UTC)
2022-08-19 (4 years ago)
Launch vehicle
CHANG ZHENG 2D
Launch site
Xichang Space Center, China (XSC)
Object type
Payload
Rocket body
Debris
Shape & HBR
Box + 2 Pan, 2.5 m
Radar Cross Section
11.063 m², Large (>1 m²)

Expand to show TLE details & history
Last TLE update: 1 day ago

TLE from 1 day ago
0 YAOGAN-35 04C
1 53526U 22100E   26172.12958902  .00006490  00000-0  28029-3 0  9993
2 53526  34.9962  51.2337 0007938  89.3616 270.8008 15.21800311213561
Epoch: 2026-06-21T03:06Z
TLE epoch observation values (Epoch: 2026-06-21T03:06:36.491Z)
Latitude
Longitude
95.24737°
Altitude
499.246 km
Speed
7.617 km/s
True Right ascension
03h 24m 56s
True Declination
0° 00' 00"
Sunlit
Object was in daylight at epoch
Visualization orbit readout
Latitude
Unknown
Longitude
Unknown
Altitude
Unknown
Speed
Unknown
Apparent Right ascension
Unknown
Apparent Declination
Unknown
Sunlit
N/A
Visualization observer readout
Local Sidereal Time
23:09:17
Azimuth
Unknown
Elevation
Unknown
Doppler factor
Unknown
Orbital elements
Apogee altitude
509.122 km
Perigee altitude
498.197 km
Semi-major axis
6,881.796 km
Eccentricity
0.00079
Inclination
34.9962°
RAAN
51.2337°
Arg. of periapsis
89.3616°
True anomaly
270.70984°
Mean anomaly
270.8008°
Eccentric anomaly
270.75532°
Mean motion
3.80181 °/min
Orbital period
94.69 mins
BSTAR
0.00028029
Loading maneuver chart data...
Computing Atmospheric mass density...
Loading historical data...
Loading historical data...
Loading historical data...
Loading historical data...
Loading historical data...
Loading historical data...
Loading historical data...
Other satellites on launch #100 in the year 2022 (2022-08-19 UTC)

Documentation

Showing up to 5 results
|